Temp
21 20 21 21 18 16 19 22 22 23 24 23 24 23 21 21 21 19 21 20 20 20 19 19 19 19 19 19 18 18 18 18 18 18 18 18 18 16 17 17 17 16 17 17 17 17 17 16 16
21 21 21 21 17 18 19 21 23 23 24 23 23 22 21 20 21 20 20 21 20 20 20 19 19 19 19 18 17 18 17 17 18 18 18 17 17 17 17 16 16 16 16 17 17 17 17 16 16
21 21 21 15 16 18 20 22 23 23 24 24 22 22 22 21 21 21 21 21 20 20 19 19 19 19 19 18 18 17 17 17 17 18 17 17 17 17 17 17 16 16 16 16 17 17 17 16 16
21 21 20 17 21 21 22 20 22 23 23 22 22 20 21 21 21 21 21 21 20 20 18 18 18 18 18 18 18 18 17 17 17 17 17 18 17 17 17 17 16 16 16 16 16 16 16 16 16
21 20 16 19 21 21 20 22 23 20 21 21 22 20 21 20 21 21 21 20 19 18 17 17 16 16 16 17 17 17 17 17 17 17 17 17 17 17 17 17 17 16 16 16 16 16 16 16 16
21 20 17 18 20 20 21 23 23 21 21 22 21 21 21 20 21 20 20 19 18 17 16 17 17 17 17 16 16 16 16 16 16 16 16 16 16 17 16 16 16 16 16 16 16 16 16 16 16
18 16 19 18 20 20 21 22 22 21 21 21 22 19 20 19 17 18 19 18 17 16 16 16 16 16 16 16 16 16 16 16 16 15 15 16 16 16 16 16 16 16 16 16 16 16 16 16 16
21 16 19 18 19 21 21 23 23 22 20 21 21 18 17 16 16 17 17 16 16 16 15 15 15 15 15 15 15 15 15 16 15 15 15 15 15 15 15 15 16 16 16 16 16 16 16 16 16
21 15 17 19 20 20 21 20 22 20 19 18 18 17 16 16 17 17 17 16 16 15 15 15 15 15 14 14 14 15 14 14 14 14 14 15 15 15 16 15 15 15 15 15 15 16 16 16 16
19 15 20 20 19 19 20 21 21 19 19 17 16 16 16 18 18 18 17 14 13 13 13 13 14 13 13 13 13 14 14 14 13 14 14 14 14 14 14 15 15 15 15 15 15 15 15 15 15
20 18 20 20 21 21 20 20 21 19 17 18 16 16 16 17 16 15 13 12 12 11 12 12 12 12 12 12 12 13 13 13 13 13 13 13 13 13 13 14 14 15 15 15 15 15 15 15 15
20 21 21 21 21 21 20 20 20 19 19 18 16 16 16 16 14 13 13 12 12 12 11 11 11 12 12 12 12 12 12 12 12 12 12 12 12 12 12 13 13 13 13 15 15 15 15 15 15
20 21 21 21 21 20 20 20 19 18 17 16 16 16 15 14 13 12 12 11 11 11 10 10 11 11 11 11 11 11 12 12 12 12 12 12 12 11 11 11 12 12 12 12 13 14 15 14 14
21 21 21 20 20 20 18 18 19 18 15 15 16 14 13 13 12 12 11 11 10 10 10 10 10 10 10 10 10 10 11 11 11 11 11 11 11 11 11 11 11 11 11 11 11 13 14 14 14
21 20 19 19 19 18 19 16 16 17 16 14 13 12 12 11 11 11 10 10 10 10 9 9 9 9 9 9 9 9 9 9 9 10 10 11 10 10 10 10 10 10 11 11 11 12 12 13 14
16 15 16 17 17 17 18 17 15 17 17 13 12 12 11 10 10 10 10 10 9 9 9 9 9 9 9 8 8 8 8 8 8 8 8 8 9 9 8 9 9 9 10 10 10 10 11 12 12
12 15 16 15 14 14 15 14 15 15 14 11 11 10 10 10 10 9 9 9 9 9 9 9 8 8 8 8 7 7 7 7 7 7 7 7 7 7 7 7 8 8 8 9 9 10 10 10 11
13 13 14 15 12 13 11 11 11 11 11 9 10 10 9 9 9 9 9 9 9 9 8 8 8 8 7 7 7 7 6 6 6 6 6 6 6 6 6 6 7 7 8 8 8 8 9 10 10
13 14 13 13 13 11 9 8 9 9 9 9 9 9 9 9 9 9 9 9 9 9 8 7 7 7 7 7 7 6 6 6 6 6 5 5 5 5 5 5 5 5 6 6 7 7 8 9 10
12 12 12 11 11 11 9 9 8 9 8 8 9 9 9 9 9 9 9 9 8 8 7 6 7 7 7 6 6 6 6 6 5 5 5 5 5 5 5 4 4 4 5 5 5 6 6 8 9
11 12 11 10 10 10 11 9 8 8 9 9 9 9 9 8 8 8 8 8 8 7 7 6 6 6 6 6 6 6 6 5 5 5 5 5 5 5 4 4 4 4 4 4 4 5 5 6 7
10 11 11 10 9 9 10 8 7 8 7 7 8 8 8 8 8 8 8 7 7 7 6 6 6 6 6 6 6 6 5 5 5 5 5 5 5 5 4 4 4 4 3 3 4 4 4 5 6
10 10 9 9 8 9 9 7 6 6 6 6 7 6 7 7 7 7 7 7 7 7 6 6 6 6 6 5 5 5 5 5 5 5 4 4 4 4 4 4 4 3 3 3 3 4 4 4 5
10 9 8 8 7 8 8 8 4 4 4 4 5 5 5 5 5 6 6 6 6 6 6 6 6 5 5 5 5 5 5 5 4 4 4 4 4 3 4 4 3 3 3 3 3 3 3 4 4
7 5 6 9 7 9 7 6 4 4 4 4 3 3 4 4 4 4 4 5 5 5 6 6 5 5 5 5 5 4 4 4 4 4 3 3 3 3 3 3 3 3 3 2 2 3 2 3 4
8 6 6 7 6 7 7 5 4 4 3 3 2 3 2 2 3 4 4 4 4 4 4 4 4 4 4 4 4 4 4 4 3 3 3 3 3 3 3 3 2 2 2 2 2 2 2 2 2
8 6 7 5 4 2 4 7 5 4 3 2 2 2 2 2 3 3 3 3 3 3 4 4 4 4 4 4 4 3 3 3 3 3 3 3 3 3 3 3 2 2 2 2 2 2 2 2 3
7 7 4 2 0 2 3 3 2 1 1 2 2 2 2 2 2 2 2 2 3 3 3 3 3 3 3 3 3 3 3 3 2 2 2 2 2 3 3 3 2 2 2 1 1 1 1 2 2
4 4 3 2 2 -2 -1 2 3 1 1 1 1 1 1 1 2 2 2 2 2 2 2 2 3 3 3 2 2 2 2 2 2 2 2 2 2 2 2 2 2 2 1 1 1 1 1 1 2
5 4 2 -3 -1 -1 -5 -1 2 2 1 1 1 1 1 1 2 1 1 1 1 1 1 2 2 2 2 2 2 2 2 2 1 1 1 1 1 2 2 1 1 1 1 1 1 0 0 2 2
Height
1521 1520 1520 1519 1529 1532 1539 1530 1519 1515 1511 1514 1512 1512 1518 1521 1524 1537 1527 1527 1528 1527 1527 1528 1529 1529 1529 1529 1528 1528 1528 1527 1527 1528 1528 1527 1527 1528 1527 1527 1527 1527 1526 1526 1526 1525 1525 1525 1525
1521 1520 1520 1519 1537 1549 1544 1526 1520 1517 1515 1516 1517 1519 1519 1527 1526 1527 1527 1527 1528 1528 1527 1529 1530 1529 1528 1528 1528 1526 1528 1527 1527 1527 1527 1527 1527 1527 1526 1527 1526 1526 1525 1525 1525 1525 1525 1524 1525
1522 1521 1522 1526 1541 1548 1542 1525 1519 1518 1514 1513 1520 1523 1525 1530 1530 1529 1527 1527 1528 1528 1528 1529 1530 1529 1529 1528 1528 1527 1527 1527 1526 1526 1526 1526 1526 1526 1526 1525 1525 1525 1525 1524 1524 1524 1524 1524 1524
1522 1523 1525 1536 1537 1533 1530 1523 1518 1517 1516 1517 1519 1527 1532 1532 1531 1530 1529 1529 1529 1529 1530 1529 1529 1529 1529 1529 1529 1527 1527 1527 1526 1525 1525 1525 1525 1525 1524 1524 1524 1524 1523 1523 1522 1523 1523 1522 1523
1522 1523 1534 1539 1536 1531 1528 1522 1518 1521 1523 1522 1519 1532 1532 1532 1530 1528 1529 1531 1531 1532 1530 1530 1530 1530 1530 1529 1528 1528 1527 1527 1526 1525 1525 1524 1523 1523 1522 1522 1522 1521 1521 1521 1520 1520 1520 1521 1521
1522 1524 1543 1549 1538 1531 1528 1525 1521 1524 1526 1526 1525 1528 1535 1535 1531 1531 1530 1530 1530 1530 1530 1530 1529 1529 1528 1528 1526 1526 1526 1526 1525 1524 1523 1523 1522 1521 1520 1520 1520 1519 1519 1518 1518 1518 1518 1518 1518
1522 1529 1538 1542 1539 1534 1529 1527 1525 1525 1529 1527 1528 1532 1538 1535 1536 1533 1530 1531 1530 1530 1530 1528 1528 1528 1527 1526 1525 1525 1524 1523 1522 1521 1520 1520 1519 1518 1518 1517 1517 1516 1516 1516 1516 1515 1515 1514 1515
1524 1528 1538 1541 1542 1538 1530 1528 1528 1528 1530 1531 1531 1535 1540 1539 1537 1533 1532 1531 1531 1531 1530 1530 1529 1528 1527 1525 1524 1523 1522 1521 1520 1519 1517 1516 1515 1514 1514 1514 1513 1513 1513 1512 1512 1512 1511 1511 1511
1525 1538 1548 1540 1539 1537 1533 1531 1531 1534 1532 1531 1535 1537 1540 1539 1537 1533 1532 1532 1531 1530 1530 1530 1529 1528 1526 1525 1523 1522 1521 1520 1518 1517 1515 1513 1512 1511 1510 1509 1508 1508 1508 1507 1507 1508 1507 1507 1507
1526 1542 1538 1536 1536 1536 1534 1532 1532 1534 1535 1538 1539 1540 1539 1537 1534 1532 1531 1531 1531 1531 1530 1530 1529 1527 1527 1524 1522 1521 1519 1518 1516 1514 1512 1511 1509 1507 1506 1504 1504 1503 1502 1502 1502 1502 1502 1502 1501
1531 1540 1535 1536 1534 1533 1532 1531 1531 1532 1536 1535 1537 1538 1538 1536 1534 1533 1533 1533 1534 1534 1532 1530 1531 1529 1527 1524 1523 1521 1519 1518 1515 1512 1509 1507 1506 1504 1502 1500 1499 1498 1498 1496 1496 1497 1496 1495 1495
1535 1534 1533 1534 1534 1533 1533 1533 1533 1533 1533 1536 1538 1538 1538 1536 1536 1536 1535 1535 1534 1533 1532 1531 1530 1528 1527 1525 1523 1521 1518 1516 1514 1512 1509 1506 1503 1501 1498 1496 1495 1493 1492 1491 1491 1491 1491 1490 1491
1534 1534 1534 1535 1536 1536 1536 1534 1535 1536 1537 1538 1538 1537 1537 1537 1537 1538 1537 1536 1535 1534 1533 1532 1532 1529 1528 1526 1524 1522 1518 1515 1512 1510 1508 1505 1502 1500 1497 1495 1492 1490 1487 1486 1485 1484 1484 1485 1485
1534 1534 1535 1537 1538 1539 1538 1536 1535 1541 1541 1541 1540 1539 1540 1540 1540 1539 1538 1537 1535 1535 1534 1533 1532 1530 1528 1526 1523 1521 1518 1515 1511 1508 1505 1502 1499 1496 1494 1492 1490 1487 1485 1482 1479 1479 1478 1478 1479
1536 1539 1539 1540 1540 1541 1539 1542 1543 1542 1542 1543 1543 1543 1543 1543 1543 1542 1541 1539 1538 1536 1535 1533 1531 1528 1526 1524 1521 1518 1516 1513 1509 1505 1502 1499 1495 1491 1489 1487 1485 1483 1480 1478 1475 1474 1472 1471 1472
1544 1547 1555 1546 1545 1547 1544 1552 1545 1546 1542 1544 1546 1547 1547 1547 1546 1545 1542 1540 1538 1536 1533 1531 1527 1525 1523 1520 1518 1516 1513 1510 1506 1502 1498 1495 1490 1487 1484 1481 1479 1477 1476 1473 1471 1469 1466 1465 1464
1560 1565 1558 1555 1552 1554 1552 1554 1547 1548 1546 1550 1552 1552 1551 1552 1551 1547 1544 1541 1539 1537 1533 1530 1526 1522 1518 1516 1514 1511 1509 1506 1503 1499 1496 1490 1486 1484 1481 1476 1473 1471 1469 1468 1466 1463 1462 1459 1459
1576 1573 1565 1563 1562 1557 1560 1561 1554 1549 1549 1554 1556 1557 1556 1554 1551 1549 1546 1542 1538 1534 1531 1527 1523 1519 1517 1514 1511 1508 1504 1502 1499 1496 1492 1487 1484 1480 1476 1471 1468 1466 1462 1460 1459 1457 1456 1454 1453
1571 1569 1570 1560 1561 1563 1568 1567 1563 1559 1555 1557 1557 1556 1556 1555 1553 1547 1544 1539 1534 1530 1526 1522 1517 1515 1513 1511 1506 1503 1498 1497 1494 1492 1488 1484 1481 1477 1472 1468 1464 1461 1457 1454 1453 1450 1448 1447 1448
1569 1569 1568 1563 1563 1565 1569 1569 1567 1565 1566 1566 1563 1558 1555 1552 1549 1545 1541 1537 1532 1528 1524 1520 1516 1512 1511 1507 1503 1499 1495 1491 1488 1485 1483 1480 1476 1473 1468 1465 1461 1457 1452 1448 1446 1445 1443 1441 1442
1573 1571 1571 1572 1565 1561 1564 1571 1573 1572 1566 1564 1563 1561 1558 1553 1549 1545 1541 1536 1531 1526 1521 1518 1514 1511 1507 1503 1499 1494 1490 1487 1484 1480 1476 1473 1471 1467 1464 1460 1456 1452 1449 1444 1440 1439 1439 1436 1435
1581 1571 1568 1566 1572 1574 1563 1577 1575 1572 1572 1567 1564 1561 1558 1553 1549 1544 1538 1533 1529 1525 1520 1517 1514 1510 1504 1499 1496 1490 1485 1481 1477 1473 1469 1466 1464 1461 1457 1454 1450 1446 1442 1440 1435 1433 1433 1431 1427
1581 1569 1565 1561 1565 1565 1567 1575 1572 1568 1567 1569 1566 1563 1558 1554 1549 1543 1538 1533 1527 1523 1518 1513 1510 1505 1499 1495 1492 1487 1481 1476 1471 1467 1462 1459 1456 1453 1449 1446 1442 1439 1436 1432 1430 1427 1425 1424 1423
1578 1569 1561 1563 1569 1574 1569 1573 1585 1581 1581 1575 1572 1565 1559 1553 1547 1542 1536 1530 1525 1521 1515 1510 1504 1499 1494 1489 1484 1479 1475 1470 1465 1460 1455 1451 1447 1443 1440 1437 1434 1431 1428 1425 1422 1420 1417 1415 1415
1580 1583 1586 1575 1580 1567 1562 1573 1581 1585 1583 1580 1577 1571 1564 1557 1549 1543 1535 1529 1522 1516 1511 1506 1501 1494 1487 1481 1476 1472 1468 1464 1458 1453 1448 1443 1438 1435 1432 1429 1426 1423 1419 1417 1415 1411 1408 1407 1407
1592 1595 1606 1598 1594 1576 1567 1574 1585 1586 1585 1581 1579 1572 1564 1556 1548 1540 1535 1529 1520 1514 1509 1503 1497 1489 1482 1476 1470 1466 1461 1456 1450 1445 1440 1435 1431 1427 1424 1421 1418 1414 1411 1408 1406 1403 1400 1399 1399
1595 1608 1603 1606 1601 1606 1580 1570 1576 1575 1570 1564 1572 1570 1561 1554 1546 1538 1531 1523 1516 1511 1504 1499 1490 1483 1477 1470 1465 1459 1453 1447 1441 1436 1431 1426 1423 1419 1415 1412 1409 1406 1402 1399 1397 1394 1392 1393 1393
1601 1604 1614 1622 1633 1618 1592 1590 1595 1588 1586 1581 1573 1564 1556 1549 1542 1535 1528 1518 1510 1504 1497 1491 1484 1477 1470 1464 1458 1451 1444 1438 1433 1428 1422 1417 1413 1409 1406 1402 1399 1395 1392 1389 1386 1383 1383 1384 1383
1609 1616 1621 1626 1623 1641 1626 1597 1592 1591 1586 1580 1573 1565 1556 1547 1539 1529 1522 1516 1507 1499 1491 1484 1477 1469 1462 1455 1448 1441 1435 1430 1424 1418 1413 1407 1402 1399 1395 1392 1388 1384 1381 1378 1374 1373 1373 1374 1375
1613 1621 1624 1646 1639 1632 1642 1613 1591 1592 1587 1581 1573 1563 1554 1545 1536 1527 1519 1510 1502 1493 1485 1478 1470 1462 1455 1447 1440 1433 1426 1420 1414 1408 1402 1398 1392 1389 1385 1381 1377 1374 1371 1367 1364 1363 1363 1364 1366
Wind_Speed
3 2 3 2 4 5 4 4 3 5 5 18 19 16 8 7 4 5 3 4 6 6 6 5 5 4 3 1 2 1 0 1 1 1 3 4 4 3 3 2 1 1 1 1 2 1 1 3 5
2 3 2 2 5 5 3 5 5 6 7 31 25 21 15 5 13 8 4 6 7 11 12 5 1 3 3 3 3 2 3 2 2 3 3 4 5 5 5 5 5 3 3 3 3 2 2 1 2
3 3 3 4 3 3 3 4 3 7 16 9 6 12 6 3 5 4 4 6 5 9 10 8 6 3 4 4 3 4 4 6 6 5 5 6 7 7 7 7 7 7 6 5 4 5 4 3 3
4 3 4 5 5 5 3 5 3 4 17 16 13 7 17 9 5 5 4 5 4 7 8 8 8 6 4 5 6 7 7 8 8 7 7 7 9 10 10 10 9 10 9 8 6 7 7 6 6
3 2 4 4 3 0 4 7 17 6 6 8 15 6 9 19 6 7 11 8 4 6 6 5 6 6 5 7 9 9 10 10 11 11 10 10 11 12 12 12 12 12 12 11 10 9 9 9 8
2 2 5 3 1 4 2 12 17 15 19 17 15 10 11 15 8 15 13 11 10 8 8 3 2 2 2 4 7 9 11 13 14 14 14 14 14 14 16 16 16 16 15 14 14 13 13 12 11
5 4 2 5 2 5 5 1 6 5 7 7 12 5 12 16 16 15 12 12 13 10 6 5 2 4 6 8 9 10 11 12 13 14 15 16 17 17 17 19 20 20 19 19 18 17 16 15 14
3 4 3 3 0 2 9 6 4 8 7 8 6 4 6 17 16 14 14 14 11 9 7 5 2 2 4 6 7 10 11 13 13 15 17 18 19 18 18 19 21 22 21 22 21 20 19 19 18
1 5 2 2 1 2 10 8 12 19 27 25 14 21 18 15 11 11 11 13 12 11 12 13 11 7 8 7 10 12 14 16 16 17 18 18 18 20 20 20 20 21 23 24 25 24 24 23 22
5 4 2 0 1 1 7 6 7 5 10 14 21 18 14 6 3 4 10 15 17 17 17 16 14 16 14 12 11 10 11 13 14 17 18 19 21 21 21 23 25 24 23 24 25 26 27 26 27
4 3 1 2 4 4 4 5 3 12 2 6 15 14 9 8 12 13 15 17 18 18 17 19 20 19 18 18 19 18 17 15 13 13 14 19 20 19 20 24 26 26 25 25 24 28 28 29 29
5 3 5 4 1 1 4 5 2 1 4 12 12 10 6 8 13 13 12 12 14 15 17 20 22 19 19 20 20 21 20 20 20 19 18 19 20 19 19 22 22 26 25 24 25 24 29 32 29
4 1 2 5 4 6 6 7 0 7 14 14 12 8 9 11 11 10 10 11 12 15 17 19 19 22 24 26 26 26 24 24 23 22 21 21 21 22 23 22 22 22 22 24 24 26 26 29 32
2 1 4 2 3 7 8 6 5 6 13 13 8 12 12 10 10 10 12 13 15 16 19 21 22 23 25 31 30 28 25 24 23 22 24 25 24 24 24 26 26 23 21 19 22 24 25 27 31
2 2 5 7 3 5 14 9 6 6 8 15 15 16 14 13 12 14 14 15 15 17 19 23 24 27 32 34 32 26 24 22 22 22 22 24 25 26 27 27 28 27 24 21 19 21 25 27 30
6 6 3 4 16 9 6 3 7 8 9 15 17 17 16 17 15 14 14 14 16 19 21 23 25 27 29 30 30 27 28 27 25 24 23 22 23 24 26 27 28 28 26 24 23 21 25 27 29
8 2 4 8 11 5 7 7 9 16 12 16 18 15 19 15 16 17 17 16 18 18 19 22 25 29 29 27 25 28 29 26 23 23 23 23 24 26 26 26 28 29 28 25 22 23 22 24 29
5 5 5 5 8 12 7 8 16 18 31 25 23 21 21 21 20 20 20 21 23 24 23 22 24 26 23 23 27 30 31 28 25 24 24 24 26 27 28 27 25 27 29 30 27 25 24 23 24
4 3 6 3 4 8 7 9 11 18 27 24 23 21 20 20 20 23 25 28 30 32 33 26 24 21 18 25 26 29 32 32 29 26 27 26 28 30 31 29 25 24 25 26 25 24 24 24 21
6 4 5 8 9 5 5 7 8 17 14 20 19 18 18 21 23 24 25 28 30 30 27 23 23 19 21 26 28 27 29 31 31 30 28 30 30 32 33 28 27 26 27 26 25 23 23 25 20
5 1 5 7 6 1 4 3 5 5 18 23 23 21 23 23 20 21 24 26 27 27 29 28 23 22 22 23 28 26 28 30 32 29 30 31 31 31 32 30 28 29 28 25 25 24 22 25 24
5 3 10 13 4 3 3 3 4 4 7 15 27 23 28 25 24 26 27 26 24 24 23 23 21 20 22 24 26 26 29 33 33 33 30 30 30 32 31 30 29 31 31 28 27 26 24 23 25
5 16 13 8 6 4 5 4 4 7 7 13 24 29 33 28 28 29 28 27 28 29 27 29 24 23 23 25 26 28 33 35 35 30 30 31 32 34 29 29 29 30 33 30 30 30 27 27 29
12 8 3 3 3 1 4 3 4 5 7 12 26 31 35 34 32 30 30 31 31 29 30 31 23 28 30 29 29 27 26 29 34 35 34 35 35 33 28 25 27 30 33 32 33 34 26 28 29
9 6 5 5 5 5 5 4 4 8 12 17 21 29 35 34 36 36 36 40 36 37 29 22 27 32 34 34 33 29 28 29 31 34 35 36 34 31 30 29 27 30 33 35 33 31 26 23 27
5 5 3 6 4 10 11 6 7 9 19 21 24 29 29 35 38 38 35 41 33 31 30 31 33 35 37 34 33 30 34 37 40 36 34 34 33 32 34 29 30 32 32 32 30 30 26 21 23
5 5 1 4 3 3 3 3 3 23 29 45 41 38 35 38 39 38 38 41 32 36 36 34 34 37 35 32 32 38 39 41 41 37 35 36 34 34 33 32 33 31 30 31 31 32 25 19 24
7 3 5 4 5 6 4 5 6 18 18 22 31 35 39 44 41 39 39 39 39 40 38 37 38 38 37 39 41 40 40 41 41 38 37 39 36 35 33 35 36 34 31 33 36 33 26 26 28
6 4 5 2 1 2 4 2 7 12 15 19 30 36 38 42 40 43 41 42 41 42 41 43 43 42 44 45 43 43 43 43 43 38 42 38 38 35 34 34 36 34 34 39 35 34 30 30 26
6 4 3 4 7 4 2 6 8 22 21 27 37 38 39 39 42 41 39 42 43 45 43 44 45 42 46 44 43 45 46 44 44 43 41 40 38 32 33 32 33 38 44 41 37 30 28 22 23
Wind_Direction
37 331 348 19 49 60 1 352 287 15 48 78 81 84 99 68 43 139 130 64 61 66 60 191 202 208 217 211 185 177 32 60 27 298 214 206 203 197 203 229 252 226 259 226 238 201 115 97 99
44 5 16 48 75 66 314 311 61 25 69 99 76 74 50 54 93 110 116 87 62 60 59 74 313 260 243 231 210 222 260 310 325 295 268 243 233 230 229 220 254 268 268 264 255 253 234 176 122
21 17 30 86 113 138 171 271 299 61 56 95 95 55 46 62 69 98 89 100 75 70 60 48 25 343 280 268 245 271 286 290 313 302 288 269 255 249 246 237 241 255 257 261 261 256 244 225 192
4 44 60 74 75 1 358 304 52 10 55 84 104 59 64 70 48 89 163 157 124 79 65 49 25 6 310 282 276 285 280 282 292 292 285 282 268 258 252 249 245 249 249 250 262 259 253 241 222
15 82 56 84 64 103 319 76 73 71 93 68 91 104 70 47 91 98 140 150 122 119 107 63 43 30 350 323 310 296 291 285 291 291 290 292 280 265 260 257 254 252 256 253 254 256 251 247 239
69 59 71 99 96 315 14 60 69 87 102 93 92 89 65 35 89 123 139 142 149 153 158 165 147 189 236 258 280 291 295 294 288 287 287 288 285 278 266 265 265 262 263 262 255 255 250 248 242
103 75 92 137 140 11 323 86 66 57 94 21 137 94 48 70 102 116 132 148 139 142 158 147 179 239 255 251 268 276 279 279 286 285 283 283 282 279 275 268 267 265 264 262 259 255 253 249 246
70 89 53 32 11 44 339 23 58 59 31 56 53 54 70 95 107 115 117 110 112 93 89 73 356 295 293 286 296 291 291 277 286 289 283 282 279 277 276 276 274 271 271 264 261 260 258 253 249
23 63 69 44 36 310 4 17 54 85 79 76 92 103 108 105 117 110 80 62 46 35 27 22 19 354 339 318 303 295 297 299 301 296 297 296 288 280 278 274 275 277 272 264 260 258 256 256 253
64 77 80 78 96 337 349 28 8 91 98 89 96 104 109 139 126 66 45 42 36 29 21 11 15 16 8 8 349 336 322 308 306 298 292 294 293 292 284 277 273 273 270 268 264 260 255 251 252
54 110 203 65 67 31 352 6 13 129 73 177 138 117 102 82 64 60 53 45 40 31 14 6 4 5 4 6 1 358 355 349 337 328 315 290 292 297 297 283 279 273 268 270 274 269 258 251 251
96 92 137 188 51 325 338 347 21 232 171 143 124 123 109 72 65 58 49 32 19 11 6 358 2 4 7 4 1 355 349 347 342 341 332 319 316 306 301 300 298 283 274 271 270 270 265 258 258
80 201 122 130 138 36 336 326 32 129 133 137 132 118 93 84 76 61 47 35 17 12 11 9 7 6 4 1 359 352 346 341 338 333 327 323 316 312 309 305 300 306 293 276 268 266 265 261 263
136 177 126 158 157 38 346 346 135 157 140 127 135 95 91 78 61 43 25 24 22 19 12 2 360 355 350 348 345 340 335 332 329 325 319 314 312 306 303 302 300 299 302 299 276 265 260 261 262
30 58 10 27 33 20 342 14 30 98 152 120 105 101 85 72 58 59 44 30 18 16 8 1 351 346 342 342 345 339 333 328 322 318 312 307 309 306 300 295 297 298 294 293 288 269 261 257 258
36 51 25 1 25 21 15 204 60 17 142 120 107 101 88 81 67 45 39 38 20 14 8 355 347 341 337 335 338 336 337 329 325 322 316 307 306 306 302 297 292 295 293 292 287 282 268 264 261
16 352 354 335 49 15 49 285 331 6 113 92 96 89 90 77 55 49 45 37 21 10 353 342 337 333 330 329 334 338 341 337 327 326 323 324 319 314 310 303 297 293 290 288 290 284 277 274 267
325 339 326 294 3 9 10 330 340 61 95 87 83 76 62 56 44 29 16 5 356 348 343 336 328 327 319 325 332 332 337 334 335 335 332 336 334 329 322 313 308 301 293 288 285 284 277 274 273
249 260 283 247 38 12 14 44 45 65 70 66 65 56 41 28 12 2 355 350 345 346 340 335 335 337 317 325 328 328 330 326 321 322 330 325 327 328 329 319 315 314 306 296 288 287 283 276 270
11 334 315 304 15 14 72 71 58 52 56 59 53 41 21 5 358 353 350 346 342 339 345 342 341 332 321 324 322 317 320 318 318 315 315 321 325 326 326 318 322 322 317 305 292 284 291 275 273
336 343 299 266 346 60 119 57 59 24 51 38 27 18 13 4 356 352 345 342 339 339 343 343 332 333 332 333 325 318 314 318 312 316 314 311 316 319 320 316 321 323 323 310 308 289 282 289 275
311 1 302 302 24 238 62 212 45 324 16 29 14 11 7 359 355 349 343 337 334 336 337 336 331 328 331 329 325 321 310 313 315 315 312 311 311 311 311 310 311 316 319 315 314 300 275 273 279
269 298 288 280 193 145 334 83 227 40 357 11 352 11 6 358 352 352 348 341 336 334 331 330 321 321 323 323 322 315 310 311 312 316 315 313 309 309 305 304 305 308 313 312 312 310 279 268 269
316 313 342 42 99 86 152 138 335 29 341 355 10 356 355 352 348 348 349 346 339 333 325 322 321 325 327 326 327 319 313 314 314 315 312 314 312 313 303 304 304 307 307 308 309 310 287 271 264
18 357 344 356 3 244 236 358 111 64 37 17 3 355 351 342 340 341 340 344 339 333 324 321 324 325 327 326 324 317 314 316 314 313 312 314 310 309 311 308 305 304 304 304 304 303 288 278 268
359 52 92 297 304 288 304 188 134 67 24 15 3 349 338 339 343 341 333 332 341 347 339 333 328 326 327 320 317 314 313 315 317 313 309 309 308 308 309 310 310 304 300 299 300 300 284 279 267
338 27 334 286 276 335 294 12 153 8 8 4 349 341 334 329 333 335 326 327 335 334 332 330 329 328 327 321 318 318 316 314 317 313 311 310 307 307 305 306 309 307 298 299 297 301 282 266 265
79 348 3 6 315 299 324 3 335 1 349 340 340 335 330 327 326 327 331 334 334 332 333 332 329 327 324 320 318 318 316 316 317 316 313 310 305 306 302 303 305 305 304 304 297 294 280 262 263
15 37 30 283 266 267 305 282 13 347 330 337 330 327 322 321 325 323 328 331 329 332 330 328 326 326 324 323 322 318 317 317 316 312 311 308 308 305 301 301 301 299 301 305 296 288 282 271 268
85 82 108 119 294 252 229 284 322 343 323 328 325 322 322 320 320 319 321 325 324 326 326 323 325 321 323 320 318 315 313 315 314 309 309 309 306 301 299 300 296 296 298 297 296 284 278 259 265